Wind_Speed
10 13 14 14 13 13 12 11 10 9 9 9 11 14 17 20 21 21 20 19 18 17 16 15 15 14 14 13 12 12 12 13 13 14 14 14 15 16 16 17 17 18 19 19 20 20 21 22 23
11 13 13 13 11 11 10 8 8 9 9 10 12 14 17 19 19 19 17 15 14 13 13 12 11 10 9 9 9 8 9 10 11 12 12 13 14 15 16 17 18 20 21 21 22 22 23 24 24
12 13 14 12 11 9 7 6 7 7 8 10 11 13 15 16 15 15 13 12 10 10 10 9 9 8 7 7 7 7 7 7 8 9 11 12 13 14 16 17 19 20 22 23 24 24 25 26 27
13 15 14 12 10 8 5 5 5 4 6 8 10 12 12 13 13 13 11 9 8 8 8 9 9 9 8 7 6 6 5 5 6 7 8 9 11 12 14 16 18 20 21 23 25 26 26 27 28
14 15 14 12 10 9 8 6 5 4 6 9 10 11 11 12 12 12 10 8 8 9 10 10 10 9 8 7 6 5 5 4 4 5 6 7 9 10 12 14 16 17 19 21 22 23 25 26 27
15 16 15 11 9 9 10 8 6 4 7 10 11 11 11 12 13 12 11 10 10 11 11 11 10 9 8 7 7 6 6 5 5 5 6 7 8 9 11 12 13 15 16 18 19 21 23 24 25
16 15 15 11 10 11 11 9 6 5 8 9 10 11 12 13 14 14 14 14 14 14 12 12 11 9 9 8 8 8 8 8 9 9 9 10 10 11 12 13 13 14 15 17 18 20 22 23 25
14 15 14 13 12 12 11 9 7 6 9 10 11 12 13 15 16 17 17 15 15 14 12 12 10 10 10 10 10 10 10 11 12 12 13 13 13 14 14 15 15 16 17 18 19 21 22 24 25
12 14 13 13 13 13 12 10 8 8 10 12 14 14 15 16 17 17 17 17 16 15 13 11 11 10 10 10 10 11 11 12 14 14 14 15 15 16 16 17 18 19 19 20 21 22 23 25 26
12 13 11 12 13 14 13 12 11 11 12 14 15 16 17 18 18 17 17 18 18 17 15 12 11 10 10 10 11 11 12 13 14 15 16 17 18 19 19 20 21 21 22 22 23 24 25 26 27
14 14 12 13 14 15 15 15 15 15 16 17 18 19 21 20 19 17 17 17 19 18 18 16 13 13 11 11 11 12 13 15 16 17 18 19 20 21 22 22 23 24 25 25 26 27 28 29 30
18 18 16 16 16 17 19 19 19 18 18 19 21 23 23 22 20 18 17 17 19 19 18 17 15 15 14 12 11 12 14 16 19 20 21 22 23 23 24 25 26 27 28 29 30 31 32 33 34
22 21 18 18 19 20 21 22 21 20 20 21 23 24 24 23 21 19 18 18 19 19 19 17 15 15 15 13 12 13 16 18 20 22 24 24 25 25 26 27 28 29 30 31 32 33 35 36 38
26 23 20 20 21 23 24 24 24 23 23 24 25 26 26 25 21 19 19 20 21 20 20 19 18 18 16 15 14 15 18 20 22 23 24 24 25 25 26 27 28 29 30 32 33 35 37 38 39
28 25 23 24 25 26 26 26 27 26 27 28 28 29 27 25 21 20 21 22 23 23 21 20 20 19 19 18 18 19 19 21 22 22 22 23 23 24 26 28 30 31 33 35 36 38 39 41 42
30 28 26 27 27 27 27 27 27 29 30 30 30 29 26 23 21 21 22 24 25 24 22 22 21 21 22 21 20 19 19 20 21 21 22 23 24 26 28 30 32 34 36 38 40 41 43 44 46
32 31 28 28 28 29 31 30 29 31 32 31 30 28 25 22 21 22 24 26 27 26 24 23 23 23 23 22 21 21 21 22 23 24 25 26 28 30 32 34 36 38 40 42 44 45 47 48 49
34 33 30 28 30 32 34 33 31 31 32 31 30 27 24 21 22 23 25 27 28 26 25 25 25 25 25 24 24 24 25 26 28 29 30 31 33 34 36 38 41 43 45 47 48 50 51 52 53
36 35 33 29 31 35 36 36 35 34 33 32 30 27 24 23 23 24 26 28 28 26 26 27 27 28 29 28 28 28 30 31 33 34 35 36 38 39 41 43 46 48 49 51 52 53 54 55 56
38 38 35 31 33 38 39 39 38 37 35 32 30 28 26 24 24 25 27 28 28 27 28 30 31 32 33 33 33 34 35 36 37 38 39 40 42 44 46 48 50 52 53 54 55 56 57 57 58
39 37 34 33 36 41 42 43 41 39 38 34 30 28 26 25 25 27 29 29 29 29 31 33 35 36 38 39 39 40 40 40 40 41 43 44 45 48 50 52 54 55 56 56 56 57 57 57 56
39 36 36 36 39 42 44 46 43 42 40 36 31 28 26 26 28 31 32 32 31 32 34 36 39 41 42 43 43 44 43 42 42 44 45 46 48 51 54 57 59 59 58 58 57 57 56 55 53
36 35 39 40 42 44 45 48 47 44 41 36 32 30 29 30 31 33 34 34 34 35 37 39 42 43 44 45 46 46 45 44 45 46 47 49 52 55 59 61 62 61 60 59 58 56 54 51 48
36 37 40 41 42 45 43 47 49 45 41 37 34 33 33 34 35 35 35 35 36 37 39 40 43 44 45 46 46 45 46 46 47 48 50 53 56 59 63 64 63 62 60 58 56 53 49 45 43
35 35 38 41 42 43 40 45 46 42 39 37 36 36 37 37 37 37 37 36 36 38 39 41 43 44 45 45 45 46 48 49 49 50 53 56 59 62 64 64 62 60 57 55 51 47 44 42 42
32 34 37 40 41 41 40 43 41 38 37 37 36 36 37 37 37 37 36 36 36 37 39 41 43 44 44 46 47 48 50 50 50 51 55 58 61 63 63 61 58 56 53 50 47 44 43 43 44
31 35 36 39 40 42 42 42 40 37 35 34 34 34 34 34 34 35 34 34 35 37 40 42 45 46 47 47 48 50 50 50 50 54 58 61 62 62 60 57 54 52 49 46 44 44 44 46 48
30 33 37 39 41 43 43 42 39 35 33 33 33 33 33 34 34 34 34 35 37 40 43 45 48 49 50 50 50 50 49 50 54 58 60 61 61 58 56 54 51 48 46 45 45 45 47 50 53
27 31 35 39 42 44 46 43 38 35 33 33 33 33 34 34 36 37 38 39 41 43 45 46 49 52 53 52 50 49 50 52 56 59 59 58 56 55 54 51 48 45 44 45 47 49 52 55 58
31 32 35 38 41 44 47 45 39 37 35 34 33 34 35 35 35 35 38 41 43 45 47 48 51 52 52 51 49 48 50 53 56 56 55 54 53 53 50 47 45 44 45 48 50 53 56 59 61
Wind_Direction
202 203 205 211 216 218 223 236 261 283 296 314 329 335 336 335 333 328 325 320 313 309 305 301 299 297 295 292 290 286 280 279 278 279 283 285 286 286 285 284 284 283 283 283 283 282 280 279 277
200 200 201 204 205 212 220 238 262 285 300 317 327 332 335 334 332 330 327 322 316 311 307 304 302 302 303 303 301 297 292 287 283 282 283 285 285 285 284 285 285 285 285 285 285 285 284 283 282
197 195 193 192 194 201 215 238 265 281 306 325 332 331 333 334 333 331 331 329 323 318 311 311 314 315 321 324 321 317 312 305 298 294 292 288 286 285 283 283 283 284 285 285 285 285 285 284 283
192 191 192 189 193 197 209 227 254 289 333 344 343 338 335 337 337 335 335 334 333 330 325 323 321 325 335 342 344 339 331 327 316 303 299 294 289 288 286 284 283 284 284 286 285 285 284 284 284
193 195 195 199 196 202 223 235 270 323 2 6 356 347 341 339 339 341 344 341 340 341 338 331 328 327 335 343 349 348 346 339 329 313 300 296 292 291 289 288 287 286 286 287 287 286 286 285 284
197 203 204 207 201 215 234 255 282 336 14 12 358 347 341 338 339 345 348 341 338 340 337 333 333 333 337 340 341 339 338 334 324 314 305 297 293 290 289 288 287 287 289 290 290 289 288 287 286
205 210 212 212 212 227 243 261 279 329 1 359 348 337 335 338 343 347 347 343 342 340 337 337 335 341 339 334 329 327 324 321 318 314 307 302 298 294 289 286 284 284 284 285 286 286 286 286 286
213 216 215 216 224 238 253 263 283 323 342 344 337 332 334 339 347 351 351 349 349 347 343 342 340 337 335 327 320 318 316 315 314 312 308 303 299 295 291 288 284 282 280 279 278 278 279 280 281
222 220 224 230 241 258 269 271 291 312 326 330 329 329 335 343 351 355 355 355 358 359 352 346 339 335 335 328 319 313 312 312 313 313 310 306 303 299 296 292 290 287 285 283 281 279 279 279 279
230 236 241 247 257 269 280 286 295 299 307 313 318 324 330 339 351 358 360 2 4 1 357 349 352 350 338 331 327 321 317 313 313 312 310 308 305 301 299 296 294 293 291 290 288 287 285 284 283
241 244 254 258 265 273 284 294 298 294 297 302 305 311 320 331 346 356 2 5 6 6 4 5 1 356 347 337 331 326 320 314 310 307 305 304 302 300 299 297 296 295 295 295 295 294 293 291 291
244 252 257 263 269 274 289 297 295 292 292 293 298 306 313 325 339 347 355 359 4 6 3 4 6 3 354 341 332 325 317 311 306 302 300 300 300 299 299 299 300 300 301 302 302 302 300 298 296
243 252 256 261 266 271 284 291 290 283 284 287 292 299 306 318 331 337 344 348 353 354 353 353 356 352 350 338 322 315 310 306 305 303 301 302 301 303 303 304 305 306 305 306 305 304 303 300 298
243 250 255 258 263 269 279 285 281 276 277 280 285 292 298 308 319 328 335 341 344 345 347 347 346 345 345 337 323 312 306 303 304 304 304 304 304 305 307 308 308 307 306 305 304 302 300 298 296
242 247 250 253 259 267 276 277 274 269 269 271 276 282 289 298 309 318 326 332 337 336 336 337 339 340 338 335 327 318 310 306 306 306 308 309 310 311 312 312 310 308 306 304 302 301 298 296 294
243 245 246 250 258 265 268 268 265 263 262 264 268 274 280 289 299 310 319 325 328 328 328 329 331 332 332 333 329 323 319 317 316 315 316 316 316 314 313 312 311 309 307 304 302 300 297 295 293
244 245 245 247 255 260 262 261 258 258 260 261 264 268 273 280 292 303 312 317 320 321 321 323 326 327 328 330 329 327 327 327 325 324 323 322 320 318 316 314 312 310 307 305 302 300 297 295 293
245 245 244 242 248 254 258 259 257 256 259 262 265 268 272 277 288 297 305 310 314 315 316 319 320 322 324 325 325 326 328 329 329 328 327 326 324 322 320 318 315 313 310 306 304 301 299 297 294
243 244 244 240 242 249 253 256 258 257 259 263 266 269 270 275 284 291 299 305 309 310 312 314 315 316 318 320 321 323 325 326 327 328 327 326 325 323 322 319 317 314 311 308 305 302 300 298 296
242 244 245 241 242 247 251 254 258 258 259 263 265 264 265 270 277 284 293 299 303 306 309 310 311 312 313 315 316 318 319 321 323 324 324 324 323 323 321 319 317 314 311 307 305 302 300 298 296
244 246 246 243 240 246 251 254 256 258 259 261 263 263 265 269 274 280 288 294 300 304 306 307 307 309 310 311 312 313 314 315 318 320 321 321 321 321 320 318 316 313 310 307 304 302 300 299 297
246 247 245 241 239 241 249 253 255 257 259 261 262 263 265 269 273 279 285 291 295 299 301 303 304 305 306 308 308 308 310 311 313 315 317 317 318 318 318 317 315 312 310 307 305 303 301 299 297
247 245 245 244 243 244 248 255 259 258 259 261 262 264 265 268 272 277 283 288 292 295 297 299 300 301 302 304 305 306 307 308 310 312 313 315 316 316 316 315 314 311 309 307 305 303 302 299 297
246 243 246 247 248 249 250 254 258 259 261 262 264 266 267 270 273 277 281 284 287 290 293 294 296 297 299 301 303 304 306 306 308 309 311 313 314 315 315 314 312 311 309 307 306 303 301 299 297
248 245 246 247 249 253 254 254 258 260 261 264 267 269 270 271 272 275 278 280 283 287 289 291 292 295 297 299 301 303 304 305 306 308 310 312 313 314 313 312 311 309 308 307 305 302 299 298 297
250 247 245 248 251 254 254 256 258 260 263 267 270 272 273 273 273 274 276 278 281 284 286 288 291 293 294 296 300 302 302 303 305 307 309 311 312 312 311 310 309 308 307 306 303 301 299 297 297
241 243 246 249 252 255 255 258 260 262 266 270 273 275 274 274 274 275 276 277 279 281 284 287 289 290 291 294 296 298 299 301 303 306 308 309 309 310 309 309 308 308 307 304 301 299 298 297 298
240 239 240 246 253 258 261 262 264 267 270 273 274 276 276 275 274 275 277 279 280 283 285 288 289 290 291 292 294 296 299 301 305 307 307 307 308 309 308 308 308 307 304 302 300 300 299 299 299
239 239 242 246 251 257 262 265 269 272 274 275 277 277 278 278 277 278 280 283 284 285 287 290 292 290 289 289 292 296 301 304 306 307 307 307 308 309 309 308 307 306 304 303 302 301 301 301 301
240 242 244 247 250 255 261 265 269 272 275 276 277 278 280 282 282 283 286 287 288 289 289 292 291 289 288 290 296 302 306 308 308 307 307 308 309 309 309 308 306 306 305 304 304 304 303 303 302
Height
5881 5882 5884 5886 5888 5889 5889 5891 5891 5892 5893 5892 5891 5891 5890 5890 5890 5890 5888 5885 5884 5884 5883 5882 5881 5880 5879 5878 5878 5877 5878 5878 5879 5880 5880 5881 5882 5882 5882 5883 5883 5883 5883 5883 5884 5884 5884 5885 5885
5879 5881 5883 5885 5886 5888 5890 5891 5891 5892 5892 5891 5890 5889 5889 5888 5886 5885 5884 5883 5882 5881 5880 5880 5879 5877 5876 5876 5875 5875 5876 5876 5877 5877 5878 5878 5879 5879 5880 5880 5880 5880 5880 5880 5880 5880 5880 5881 5881
5878 5880 5883 5884 5886 5888 5890 5891 5891 5891 5891 5890 5889 5888 5888 5887 5886 5884 5883 5881 5880 5879 5878 5878 5877 5876 5875 5874 5874 5874 5874 5874 5875 5875 5876 5876 5876 5876 5877 5877 5877 5877 5877 5877 5876 5876 5876 5876 5876
5878 5880 5882 5884 5886 5888 5889 5891 5891 5891 5890 5889 5888 5887 5887 5886 5885 5883 5882 5880 5879 5878 5877 5876 5875 5874 5873 5873 5872 5872 5872 5873 5873 5873 5873 5873 5873 5873 5873 5873 5873 5873 5873 5872 5872 5872 5872 5872 5872
5878 5880 5881 5883 5886 5888 5889 5890 5890 5889 5889 5888 5887 5887 5886 5886 5884 5882 5881 5880 5879 5878 5876 5875 5874 5872 5872 5871 5871 5871 5871 5871 5871 5871 5871 5871 5871 5871 5870 5870 5870 5869 5869 5868 5868 5867 5867 5866 5866
5878 5879 5881 5883 5886 5887 5887 5888 5888 5888 5887 5887 5887 5887 5886 5885 5883 5881 5880 5878 5877 5876 5875 5873 5872 5871 5870 5870 5870 5870 5869 5869 5869 5869 5869 5868 5868 5868 5867 5867 5866 5866 5865 5864 5863 5863 5862 5861 5861
5878 5879 5880 5883 5884 5885 5886 5886 5886 5886 5886 5886 5886 5886 5885 5884 5882 5880 5878 5877 5875 5874 5873 5872 5870 5869 5869 5869 5868 5868 5868 5868 5868 5867 5867 5866 5866 5865 5864 5864 5863 5862 5862 5861 5860 5859 5858 5857 5856
5877 5879 5880 5881 5882 5883 5883 5884 5884 5884 5884 5885 5885 5885 5884 5883 5881 5879 5877 5875 5873 5872 5871 5870 5868 5868 5867 5867 5867 5867 5867 5866 5866 5865 5864 5863 5862 5862 5861 5860 5859 5858 5857 5856 5855 5854 5853 5852 5851
5876 5879 5878 5880 5880 5881 5881 5882 5882 5882 5882 5883 5884 5884 5883 5882 5880 5878 5876 5874 5872 5870 5869 5867 5867 5866 5865 5865 5865 5865 5864 5864 5863 5862 5861 5860 5859 5858 5857 5856 5855 5853 5852 5851 5850 5849 5847 5846 5845
5875 5876 5878 5878 5878 5878 5879 5880 5880 5880 5881 5881 5882 5881 5881 5880 5879 5878 5875 5873 5871 5869 5867 5866 5865 5864 5864 5863 5863 5862 5862 5861 5860 5859 5857 5856 5855 5854 5853 5851 5850 5849 5847 5846 5845 5843 5842 5840 5839
5873 5874 5875 5876 5876 5876 5877 5877 5877 5878 5879 5880 5880 5879 5879 5878 5878 5877 5875 5872 5870 5868 5866 5865 5864 5863 5862 5861 5860 5860 5859 5858 5857 5855 5854 5853 5851 5850 5848 5847 5845 5844 5842 5840 5839 5837 5835 5834 5832
5871 5872 5873 5874 5874 5874 5875 5875 5875 5875 5877 5878 5878 5877 5877 5877 5877 5875 5873 5871 5869 5868 5866 5864 5862 5861 5861 5859 5858 5857 5856 5855 5853 5852 5850 5848 5847 5845 5844 5842 5840 5838 5836 5834 5832 5830 5828 5826 5824
5868 5869 5871 5872 5872 5872 5872 5872 5872 5872 5874 5874 5874 5875 5874 5875 5875 5873 5871 5870 5868 5867 5865 5863 5861 5860 5859 5858 5856 5855 5853 5851 5849 5847 5845 5844 5842 5840 5838 5836 5834 5832 5830 5828 5825 5823 5821 5818 5816
5864 5866 5869 5870 5870 5870 5870 5870 5869 5869 5870 5871 5871 5872 5872 5872 5872 5871 5869 5867 5866 5864 5863 5861 5859 5858 5856 5855 5853 5851 5849 5847 5845 5843 5841 5839 5837 5835 5833 5831 5829 5826 5824 5822 5819 5817 5814 5811 5808
5861 5863 5866 5866 5867 5867 5868 5867 5866 5866 5866 5867 5868 5869 5869 5870 5869 5868 5866 5864 5863 5861 5860 5858 5856 5855 5854 5852 5850 5848 5846 5844 5842 5839 5837 5835 5832 5830 5828 5826 5823 5821 5818 5816 5813 5810 5807 5803 5800
5857 5859 5861 5863 5863 5863 5865 5864 5863 5861 5861 5862 5863 5864 5865 5866 5866 5864 5862 5860 5859 5858 5856 5854 5853 5851 5850 5848 5846 5844 5842 5840 5838 5835 5833 5830 5828 5825 5823 5820 5817 5814 5811 5808 5805 5801 5798 5794 5790
5852 5854 5856 5859 5858 5858 5857 5858 5858 5856 5856 5857 5858 5859 5861 5862 5861 5860 5858 5856 5855 5853 5852 5850 5848 5847 5845 5844 5842 5840 5838 5836 5833 5830 5828 5825 5822 5819 5816 5813 5810 5806 5803 5799 5795 5791 5786 5782 5778
5845 5847 5850 5853 5853 5851 5850 5851 5852 5851 5851 5852 5853 5855 5856 5856 5856 5855 5854 5852 5850 5848 5847 5845 5844 5842 5841 5839 5837 5835 5833 5830 5827 5824 5821 5817 5814 5811 5807 5803 5800 5795 5791 5786 5781 5777 5772 5767 5763
5838 5840 5844 5847 5846 5844 5843 5844 5844 5845 5846 5847 5848 5850 5851 5851 5851 5850 5849 5847 5845 5843 5841 5839 5838 5837 5835 5833 5831 5828 5825 5822 5819 5816 5812 5809 5805 5801 5797 5792 5788 5783 5778 5773 5767 5762 5757 5752 5747
5831 5833 5837 5841 5839 5836 5836 5836 5838 5839 5840 5842 5843 5844 5844 5845 5845 5844 5843 5841 5839 5837 5835 5833 5832 5830 5828 5825 5823 5820 5817 5814 5811 5807 5804 5800 5795 5791 5786 5781 5776 5771 5765 5759 5754 5748 5742 5737 5731
5825 5828 5831 5833 5831 5828 5829 5829 5831 5833 5834 5836 5837 5838 5838 5839 5839 5838 5837 5835 5833 5831 5829 5827 5825 5822 5820 5817 5814 5812 5809 5805 5802 5798 5794 5790 5785 5781 5775 5770 5764 5758 5752 5745 5739 5733 5727 5721 5716
5818 5822 5823 5823 5823 5822 5822 5820 5825 5826 5828 5830 5831 5832 5832 5833 5833 5832 5830 5829 5827 5825 5823 5820 5818 5815 5812 5809 5806 5803 5800 5797 5793 5790 5786 5781 5776 5770 5764 5758 5751 5744 5737 5731 5724 5718 5712 5706 5700
5811 5813 5813 5814 5814 5815 5815 5814 5816 5819 5821 5824 5825 5826 5826 5826 5826 5825 5824 5822 5820 5818 5816 5814 5811 5807 5804 5801 5798 5795 5792 5788 5785 5781 5776 5771 5765 5759 5752 5745 5737 5730 5722 5715 5709 5702 5696 5691 5686
5802 5804 5804 5805 5806 5807 5811 5809 5808 5812 5815 5817 5818 5818 5819 5819 5819 5818 5817 5815 5813 5811 5809 5806 5803 5800 5797 5794 5790 5787 5783 5780 5776 5771 5766 5760 5753 5746 5739 5731 5723 5715 5707 5700 5694 5687 5682 5677 5672
5795 5798 5798 5797 5798 5799 5804 5801 5802 5806 5808 5809 5810 5811 5811 5811 5811 5810 5809 5808 5806 5803 5801 5798 5795 5792 5789 5785 5781 5778 5774 5770 5765 5760 5754 5747 5740 5733 5725 5716 5708 5701 5693 5686 5680 5674 5669 5665 5661
5788 5790 5791 5791 5792 5793 5795 5793 5798 5800 5801 5802 5802 5802 5802 5802 5802 5802 5801 5799 5797 5795 5792 5789 5786 5783 5780 5776 5772 5768 5764 5759 5754 5749 5743 5736 5728 5720 5712 5703 5695 5687 5680 5673 5667 5662 5658 5653 5649
5781 5782 5785 5785 5784 5784 5786 5788 5791 5794 5795 5795 5795 5795 5794 5794 5794 5793 5792 5790 5789 5786 5784 5781 5778 5774 5770 5766 5762 5758 5754 5749 5744 5738 5731 5724 5716 5707 5699 5690 5682 5674 5667 5661 5656 5651 5646 5641 5636
5775 5777 5778 5778 5777 5776 5778 5780 5784 5788 5789 5788 5788 5787 5787 5786 5786 5785 5784 5782 5780 5778 5775 5771 5768 5764 5760 5756 5752 5747 5743 5738 5733 5726 5719 5711 5702 5694 5686 5678 5670 5662 5656 5650 5645 5639 5634 5628 5622
5769 5770 5771 5771 5771 5771 5769 5775 5778 5780 5781 5781 5781 5780 5780 5779 5778 5777 5776 5774 5771 5769 5765 5761 5757 5753 5749 5745 5741 5737 5732 5727 5720 5713 5705 5697 5689 5681 5673 5665 5658 5651 5644 5639 5633 5627 5620 5614 5606
5763 5764 5764 5765 5765 5764 5762 5768 5771 5773 5773 5774 5774 5773 5772 5772 5770 5769 5767 5765 5762 5758 5755 5751 5747 5742 5738 5734 5730 5725 5720 5714 5707 5700 5692 5684 5676 5668 5660 5653 5646 5639 5633 5627 5620 5613 5606 5598 5590